Flag for Moldova Weather past 2 weeks in Bălți, Moldova

Now
75 °F

Mild.


Feels Like: 78 °F
Forecast: 66 / 84 °F
Wind: 9 mph from Northeast

Location: Baltsi-Leadoveni - The North of Moldova

Current Time: Sep 2, 2014 at 10:57:20 AM

Latest Report: Sep 2, 2014 at 10:30 AM


Visibility: N/A

Pressure: 29.95 "Hg

Humidity: 44%

Dew point: 52 °F

Location of BălțiLocation

Historic Weather in Bălți — Graph

°F

Bălți temperature yesterday

Maximum temperature yesterday: 81 °F (at 4:30 PM)
Minimum temperature yesterday: 59 °F (at 6:00 AM)
Average temperature yesterday: 70 °F

Past Weeks' High & Low Weather Summary

 TemperatureHumidityPressure
High86 °F (Aug 20, 3:00 PM)100% (Aug 21, 9:00 PM)30.15 "Hg (Aug 21, 9:00 PM)
Low50 °F (Aug 25, 6:30 AM)28% (Sep 1, 4:30 PM)29.71 "Hg (Aug 27, 5:00 PM)
Average66 °F62%29.98 "Hg
* Reported Aug 18 9:00 AM — Sep 2 9:30 AM, Bălți, Weather by CustomWeather, © 2014

Note: Actual official high and low records may vary slightly from our data, if they occured in-between our weather recording intervals... More about our weather records

Advertising

Bălți weather history for previous 24 hours

 ConditionsComfort  
Time TempWeatherWind HumidityBarometerVisibility
9:30 AM
Sep 2
70 °FMild.9 mph46%29.92 "HgN/A
9:00 AM68 °FMild.8 mph49%29.92 "HgN/A
8:30 AM64 °FMild.7 mph52%29.92 "HgN/A
8:00 AM64 °FMild.8 mph52%29.92 "HgN/A
7:30 AM63 °FMild.8 mph52%29.92 "HgN/A
7:00 AM61 °FRefreshingly cool.7 mph52%29.92 "HgN/A
6:30 AM59 °FRefreshingly cool.7 mph55%29.92 "HgN/A
6:00 AM63 °FMild.3 mph45%29.92 "HgN/A
5:30 AM63 °FMild.3 mph45%29.89 "HgN/A
5:00 AM63 °FMild.2 mph45%29.89 "HgN/A
4:30 AM63 °FMild.5 mph49%29.89 "HgN/A
4:00 AM63 °FMild.6 mph49%29.89 "HgN/A
3:30 AM64 °FMild.2 mph46%29.89 "HgN/A
3:00 AM64 °FMild.3 mph46%29.89 "HgN/A
2:30 AM63 °FMild.6 mph49%29.92 "HgN/A
2:00 AM64 °FMild.6 mph46%29.92 "HgN/A
1:30 AM64 °FMild.6 mph46%29.92 "HgN/A
1:00 AM64 °FMild.7 mph49%29.92 "HgN/A
12:30 AM70 °FMild.5 mph35%29.92 "HgN/A
12:00 AM70 °FMild.5 mph35%29.92 "HgN/A
11:30 PM
Sep 1
70 °FMild.3 mph38%29.92 "HgN/A
11:00 PM70 °FMild.3 mph38%29.92 "HgN/A
10:30 PM72 °FMild.2 mph36%29.92 "HgN/A
10:00 PM75 °FMild.3 mph29%29.92 "HgN/A
9:30 PM73 °FMild.5 mph33%29.92 "HgN/A
9:00 PM72 °FMild.6 mph38%29.92 "HgN/A
8:30 PM73 °FMild.6 mph33%29.89 "HgN/A
8:00 PM73 °FMild.5 mph33%29.89 "HgN/A
7:30 PM77 °FSunny.3 mph32%29.89 "Hg10 mi
7:00 PM77 °FSunny.3 mph32%29.89 "Hg10 mi
6:30 PM79 °FPassing clouds.5 mph32%29.89 "HgN/A
6:00 PM79 °FPassing clouds.5 mph30%29.89 "HgN/A
5:30 PM81 °FPassing clouds.7 mph28%29.92 "HgN/A
5:00 PM79 °FPassing clouds.8 mph30%29.92 "HgN/A
4:30 PM81 °FPassing clouds.7 mph28%29.92 "HgN/A
4:00 PM79 °FSunny.6 mph32%29.92 "Hg10 mi
3:30 PM79 °FPassing clouds.6 mph32%29.92 "HgN/A
3:00 PM79 °FPassing clouds.8 mph32%29.92 "HgN/A
2:30 PM79 °FPassing clouds.9 mph30%29.95 "HgN/A
2:00 PM79 °FPassing clouds.12 mph34%29.95 "HgN/A
1:30 PM77 °FPassing clouds.8 mph36%29.95 "HgN/A
1:00 PM77 °FPassing clouds.13 mph36%29.95 "HgN/A
12:30 PM77 °FPassing clouds.13 mph34%29.95 "HgN/A
12:00 PM75 °FPassing clouds.9 mph41%29.95 "HgN/A
11:30 AM75 °FPassing clouds.12 mph44%29.95 "HgN/A
11:00 AM73 °FSunny.10 mph50%29.95 "Hg10 mi
10:30 AM72 °FPassing clouds.8 mph50%29.98 "HgN/A
10:00 AM70 °FPassing clouds.9 mph57%29.98 "HgN/A
Weather by CustomWeather, © 2014

See weather overviewHow to use our weather pages